Location: Bailleul
(50.3375°N, 2.8513°E)
Time: 20:39:29
(UTC+00:00)

Cosmos 1943 - Pass Details

Date: 19 April 2021
Orbit: 834 x 849 km, 71.0° (Epoch: 17 May)

Event Time Altitude Azimuth Distance (km) Brightness Sun altitude
Rises 22:25:49 0° 330° (NNW) 3,395 7.7 -25.6°
Reaches altitude 10° 22:28:16 10° 332° (NNW) 2,458 6.6 -25.8°
Maximum altitude 22:33:56 82° 60° (ENE) 852 3.1 -26.1°
Enters shadow 22:34:25 74° 121° (ESE) 876 3.0 -26.1°
